Wind_Speed
3 3 4 6 8 9 10 9 10 11 10 7 8 8 7 5 4 4 4 6 9 6 4 8 9 8 9 12 13 12 11 12 12 10 9 10 10 11 12 11 11 11 11 14 18 22 24 24 23 22 23 23 25 25 25 24 25 25 25 23 22 20 18 17 15 14 13 12 12 13 14 16 15 15 14 13 13 11 11 12 13 14 15 16 17 17
1 3 8 10 11 12 12 11 10 10 9 6 7 8 6 4 4 4 5 6 3 3 5 6 5 6 9 12 11 11 12 15 15 13 12 13 12 11 13 13 13 10 8 10 13 18 21 21 22 23 24 24 25 27 28 27 27 27 26 25 23 20 19 18 17 17 16 16 16 16 16 16 15 15 15 15 14 12 11 12 13 14 15 16 17 17
3 6 12 13 11 10 12 11 11 10 8 6 6 5 5 4 3 4 5 4 2 2 4 7 5 6 9 10 11 14 17 15 15 15 14 15 13 11 12 13 12 10 8 9 11 14 19 21 22 24 25 26 27 28 30 29 28 28 28 27 25 23 21 20 20 20 20 19 18 17 16 14 13 15 16 15 14 13 12 12 13 14 15 16 16 17
3 8 14 11 8 9 12 13 12 10 6 5 5 3 5 4 1 4 5 2 1 2 4 4 4 5 4 6 9 15 15 11 13 15 12 13 14 14 15 13 13 13 11 11 11 12 17 20 22 24 25 27 28 28 30 30 30 31 31 29 27 26 24 22 22 21 20 18 17 17 15 13 12 13 14 15 15 15 14 14 15 15 16 17 17 17
9 13 11 6 7 9 11 13 11 8 5 5 6 5 5 5 4 6 5 4 4 4 2 4 3 6 2 6 9 9 10 9 11 12 10 10 12 13 13 12 13 14 13 13 13 12 14 18 22 25 26 27 28 29 30 31 32 33 33 32 29 27 26 25 23 20 18 17 16 16 14 13 13 13 13 14 17 17 17 17 17 17 16 17 18 18
11 15 8 8 11 9 9 11 11 9 5 4 5 7 8 7 6 6 6 4 4 5 3 4 3 6 3 6 10 7 9 11 9 11 14 11 10 10 10 11 12 13 13 13 14 14 14 18 22 24 25 26 28 30 32 32 32 33 33 32 30 29 28 26 23 20 18 17 17 17 17 16 16 15 15 15 17 18 18 18 17 16 16 16 17 17
8 11 6 10 12 8 8 8 10 10 6 2 6 7 6 5 5 5 3 1 1 3 4 1 1 5 5 5 9 9 11 14 10 12 16 13 11 12 11 11 12 11 12 12 13 13 14 17 20 21 25 28 29 31 32 31 31 32 32 31 30 29 28 25 23 21 20 20 19 19 19 19 18 18 17 16 16 17 16 16 16 16 16 16 17 17
5 7 5 6 7 5 6 6 7 7 6 4 7 5 5 2 4 5 3 2 3 3 4 3 2 2 5 7 6 9 13 13 10 12 15 13 13 14 13 13 12 13 13 12 12 12 13 17 20 22 26 30 32 31 30 30 31 32 31 31 30 29 28 25 23 22 22 22 21 20 20 20 21 20 18 15 15 16 16 16 16 16 16 16 18 19
3 5 6 5 5 5 5 7 8 6 5 7 7 6 6 5 7 5 3 2 1 1 5 6 2 1 5 7 3 5 11 12 12 14 15 15 16 16 16 13 11 12 13 13 14 14 14 18 23 27 30 32 31 30 30 32 32 31 31 30 29 30 29 27 25 23 23 23 22 22 22 22 22 22 20 16 15 15 16 17 17 17 17 17 18 19
4 6 6 5 5 5 6 8 7 7 6 7 4 3 2 1 3 2 3 2 2 2 5 6 1 1 5 7 5 1 6 10 13 13 13 15 16 16 14 11 10 10 11 13 13 14 17 23 27 29 30 30 30 29 30 31 31 31 31 29 28 29 30 30 28 26 25 24 24 23 24 23 23 23 21 18 16 15 16 17 17 17 17 17 18 18
6 7 5 4 5 6 6 7 5 7 7 3 0 1 3 4 3 2 2 3 2 2 7 8 6 5 3 7 5 4 6 9 11 9 8 11 12 12 11 10 11 11 11 12 11 12 17 23 27 27 26 26 27 28 28 28 29 31 31 30 29 29 29 29 29 27 26 25 25 25 25 25 24 23 22 20 18 17 17 18 18 18 17 17 17 16
6 7 5 4 4 4 5 6 4 4 2 3 3 1 3 5 4 4 5 3 1 4 7 9 5 6 3 6 5 5 6 8 11 10 11 13 12 11 11 10 12 12 12 12 10 10 12 15 19 22 23 23 24 26 27 28 29 29 30 31 30 30 30 30 29 27 27 27 27 26 25 25 25 24 23 21 20 18 17 18 19 18 18 17 16 15
5 7 6 5 5 4 4 6 5 5 3 2 2 3 2 4 3 2 4 1 2 6 7 6 2 3 5 8 7 7 6 6 10 11 12 15 15 14 13 13 13 12 12 11 10 10 10 11 14 19 22 22 23 26 28 29 29 29 29 30 31 32 31 30 29 28 27 28 28 27 26 25 25 25 24 23 21 19 18 18 19 19 19 18 17 16
5 7 7 6 6 4 6 5 3 4 4 3 3 3 3 2 1 3 4 2 3 6 7 5 2 3 5 5 7 7 6 6 7 8 10 13 16 16 15 14 13 12 12 11 10 11 10 11 14 20 23 23 24 26 27 28 29 29 29 30 31 32 31 30 29 28 28 29 29 28 27 26 26 26 25 24 22 20 18 18 18 19 19 18 17 16
4 6 6 6 5 4 7 8 7 6 5 5 5 5 4 4 4 4 4 4 5 5 6 4 2 4 3 4 5 4 2 3 6 6 7 8 10 11 11 11 11 11 11 10 11 12 12 14 18 20 22 23 25 25 26 27 28 29 30 31 31 30 30 30 29 29 29 29 28 28 27 26 26 26 25 24 22 20 19 18 18 18 18 17 16 16
5 7 8 8 6 4 6 6 7 6 5 5 3 5 3 5 5 3 4 6 4 2 3 3 2 4 3 3 2 1 3 3 6 6 9 9 9 9 9 10 10 10 10 9 10 12 12 14 17 19 21 23 25 25 26 28 29 30 30 30 31 30 30 29 29 29 29 29 28 27 27 26 25 25 25 24 22 21 20 19 18 17 17 17 17 17
3 7 8 9 9 9 10 8 6 6 4 3 3 3 4 6 7 3 4 2 2 2 4 2 3 4 1 2 3 1 2 4 6 6 9 10 11 11 10 10 10 9 10 10 10 10 10 10 15 19 21 23 24 24 27 29 31 31 30 29 30 30 29 29 30 30 29 28 28 27 27 26 25 26 25 25 24 22 20 19 18 18 19 19 19 18
6 6 6 8 12 12 10 9 7 8 7 3 4 7 3 1 3 2 1 2 0 3 5 2 5 4 2 2 5 3 5 7 7 6 7 8 9 11 10 10 11 11 11 11 10 9 9 11 16 20 21 23 26 26 28 30 31 31 31 30 30 30 29 29 30 30 29 29 28 27 27 26 26 26 25 25 24 22 21 20 19 20 21 21 20 19
7 7 6 7 12 10 4 6 6 6 8 7 5 5 4 2 1 0 3 3 2 3 4 3 5 5 4 5 6 7 9 9 8 6 7 8 8 8 8 9 11 12 11 10 9 9 9 11 16 20 21 22 24 25 27 29 30 30 30 30 30 30 30 28 28 28 28 29 28 28 27 27 26 25 25 24 23 22 22 21 21 22 23 22 20 19
4 5 7 5 9 8 2 3 4 5 7 8 3 1 2 3 4 3 4 4 4 4 3 4 4 3 5 7 11 13 13 13 11 8 8 9 9 8 8 8 9 10 10 10 10 10 10 12 18 22 22 23 24 23 25 27 28 29 29 29 29 29 28 26 26 27 28 28 28 28 27 26 25 25 24 23 22 23 23 22 21 22 24 22 20 19
1 4 6 5 5 6 3 4 7 5 5 5 4 3 2 1 2 3 2 3 4 3 3 3 4 5 5 5 12 16 15 13 11 10 9 9 9 10 8 8 8 8 9 10 11 11 11 13 18 23 24 25 24 23 24 26 27 28 28 28 29 29 28 27 26 27 28 28 29 28 28 27 26 24 23 23 23 23 23 23 22 22 24 22 20 20
2 2 4 3 3 5 6 6 7 9 9 8 7 7 5 4 2 2 4 3 2 4 4 4 4 6 6 4 9 12 12 10 10 10 9 9 10 10 8 8 9 9 9 10 11 11 10 11 16 20 21 21 21 22 25 27 27 27 28 28 29 28 29 29 28 27 27 28 29 30 29 29 26 24 23 22 23 24 24 23 22 22 22 21 21 24
1 0 1 3 4 5 8 9 5 5 7 7 8 7 6 6 5 6 6 4 2 3 3 3 3 6 6 5 6 8 10 10 10 10 9 9 10 9 7 8 9 10 11 11 11 10 9 12 17 19 20 20 22 23 25 26 27 28 29 29 29 29 30 30 28 27 26 26 27 29 30 29 26 24 24 24 24 24 24 23 23 22 23 23 23 25
3 2 2 4 5 5 7 10 10 6 2 3 4 5 6 6 6 6 6 4 4 4 3 3 4 6 6 4 4 7 11 11 9 10 11 10 9 8 9 9 9 10 10 10 10 10 10 13 16 16 17 19 22 24 26 28 29 30 30 29 29 31 32 30 28 27 27 25 26 28 28 27 26 25 24 24 24 24 24 23 22 22 22 22 23 22
3 2 2 4 5 6 7 7 8 7 3 2 3 3 5 8 9 5 2 3 4 5 6 5 4 6 5 2 1 1 6 11 11 11 11 11 9 9 9 10 9 10 10 11 11 11 10 11 12 13 16 20 22 25 27 28 29 29 30 31 31 32 32 30 28 27 27 26 25 26 27 26 25 25 25 25 24 24 24 24 23 21 19 18 19 21
2 2 2 2 2 4 4 4 4 5 5 3 4 4 3 5 8 7 3 3 5 4 6 6 4 6 7 2 5 1 3 8 9 6 6 8 10 10 10 9 9 9 11 13 13 11 11 11 11 13 18 21 23 25 26 27 29 29 30 31 31 32 31 30 29 27 27 26 26 26 27 27 26 26 25 24 24 23 24 24 24 23 20 18 20 20
1 0 3 4 4 6 6 6 6 5 7 8 8 8 8 7 4 2 2 5 5 4 4 5 5 2 7 3 2 2 4 7 7 5 5 7 9 11 10 9 9 10 11 12 12 11 11 11 10 12 16 19 21 23 25 27 29 30 30 30 30 30 30 29 29 28 27 26 26 27 27 27 28 27 26 25 24 23 24 23 23 22 21 21 22 21
2 3 3 2 5 7 7 9 9 6 9 13 12 10 12 10 5 3 4 5 3 4 7 7 5 5 5 6 4 6 5 5 6 4 7 8 8 8 8 9 9 9 8 8 9 9 9 8 7 8 11 15 18 19 21 23 26 29 29 30 30 30 30 30 29 29 28 26 26 27 28 28 28 27 26 26 25 24 24 24 24 23 22 22 24 25
1 4 3 7 9 11 10 11 10 7 9 12 13 13 14 12 6 4 6 5 3 5 7 7 8 7 6 5 1 4 5 5 6 5 3 7 9 9 9 9 9 7 7 8 8 8 8 8 6 6 6 9 16 21 21 20 21 23 26 29 29 30 31 30 28 28 28 26 27 29 30 28 27 26 27 27 27 26 26 25 25 25 24 23 24 24
0 3 5 9 10 11 9 10 11 9 8 9 12 14 14 13 11 10 8 5 6 7 5 6 9 8 6 5 4 3 1 4 7 8 8 4 4 10 12 10 9 9 10 10 10 9 9 9 8 7 7 7 7 14 19 20 20 20 22 25 26 27 29 27 27 28 27 28 30 31 29 27 26 26 26 27 28 28 28 27 26 25 24 22 23 23
2 2 6 6 8 11 8 7 10 10 8 10 12 12 13 13 12 12 9 5 6 6 4 6 8 7 5 4 6 5 3 6 8 9 11 11 7 1 7 10 11 11 11 10 10 10 9 8 8 7 8 10 10 10 11 13 17 19 21 24 26 28 27 25 26 29 30 31 32 30 28 27 26 26 27 27 28 28 28 28 26 25 23 22 23 24
1 2 3 1 4 9 6 5 9 11 10 13 14 14 15 12 9 9 7 4 6 6 5 6 7 6 5 1 4 4 5 7 7 7 8 10 12 8 2 9 10 10 11 10 9 9 9 8 8 7 8 10 12 12 11 10 10 13 16 19 23 26 26 25 26 29 31 32 30 28 28 28 27 28 28 29 29 29 29 28 26 25 24 24 24 25
2 2 2 1 3 9 7 4 6 8 8 10 12 13 13 11 9 10 8 6 8 6 6 7 7 5 5 3 2 3 4 5 4 4 4 6 10 8 2 7 10 10 10 9 8 8 8 7 7 9 9 9 8 8 7 8 10 12 12 12 13 17 21 25 28 30 32 31 28 27 28 29 28 29 29 29 29 29 28 27 27 26 25 25 25 25
4 3 4 3 2 8 10 6 4 6 8 9 7 7 8 11 13 14 14 13 11 6 5 7 6 6 7 7 5 4 3 3 2 1 2 1 2 4 4 1 6 9 9 9 9 8 7 7 8 10 11 9 7 5 4 2 3 6 8 8 6 8 13 21 27 30 32 31 28 28 29 29 29 29 29 28 28 27 26 27 28 27 25 25 25 26
6 5 4 2 1 5 8 6 5 8 8 6 6 7 9 12 13 15 17 17 14 11 11 13 10 8 9 9 9 8 7 6 5 3 1 4 5 4 1 2 2 2 6 7 8 8 7 8 10 10 10 9 7 7 6 4 4 2 2 2 3 5 8 14 22 27 30 30 28 28 29 30 30 30 29 28 26 25 25 26 26 26 25 25 26 27
7 5 3 2 2 2 5 5 6 6 6 9 11 9 9 12 11 10 13 14 12 12 14 17 15 10 9 9 8 8 8 8 7 5 5 6 6 7 7 5 3 3 4 5 7 8 9 11 12 12 11 10 9 9 8 7 6 5 6 7 6 6 8 12 17 23 28 30 29 28 30 31 31 31 29 27 26 25 25 25 25 25 25 25 26 26
8 5 3 3 3 3 6 9 7 6 10 14 13 8 5 5 6 8 10 11 10 10 12 14 13 9 8 8 7 9 9 7 6 6 8 9 9 8 8 8 8 7 7 7 8 10 14 15 13 11 11 11 10 9 7 6 5 6 8 9 8 7 9 12 16 20 25 29 30 30 30 31 31 30 29 27 25 25 25 26 25 24 24 24 25 26
8 7 5 4 4 3 5 8 7 6 11 13 10 6 5 6 5 3 9 11 7 7 10 11 11 10 8 7 7 8 8 7 7 8 8 9 11 12 10 9 8 8 7 7 9 12 15 14 11 10 11 12 10 8 7 6 6 7 9 9 8 7 10 12 16 19 23 28 31 30 30 31 31 29 28 25 25 26 25 24 22 21 22 23 24 27
6 6 6 5 4 3 4 7 7 7 10 11 8 6 5 4 6 4 6 10 5 5 9 11 12 11 9 9 9 9 7 7 9 8 7 9 11 12 13 11 10 11 11 11 12 13 13 12 11 12 12 11 10 8 6 6 6 8 9 8 6 6 10 13 15 18 22 27 30 30 30 30 29 28 26 25 24 25 23 20 19 20 22 24 25 27
3 3 3 5 7 7 8 9 7 6 8 9 7 5 4 2 8 6 5 8 4 4 6 9 11 11 12 13 11 11 12 11 9 8 9 11 11 10 10 11 11 11 12 13 14 13 12 13 14 13 11 10 9 8 7 5 6 8 8 7 5 4 6 10 13 16 20 25 26 26 26 27 27 27 26 25 25 24 20 18 19 20 22 24 25 25
2 2 2 5 8 10 11 11 7 6 9 10 7 5 3 1 4 4 8 6 2 3 4 2 5 7 10 13 11 11 12 9 6 10 12 13 12 11 10 12 15 16 17 18 17 14 13 13 14 13 11 10 10 9 7 5 4 7 8 6 4 4 5 5 6 9 16 21 21 21 22 24 26 26 25 25 25 22 19 19 20 22 23 24 24 23
1 1 2 4 6 7 8 9 8 8 9 10 8 6 3 3 5 7 6 2 1 1 2 1 2 3 3 8 10 10 8 4 6 11 14 13 13 13 11 11 13 15 18 20 19 17 16 14 13 12 10 9 9 8 6 5 4 7 8 8 7 6 4 3 3 3 9 16 19 19 20 22 24 25 25 25 25 22 20 20 21 22 22 23 23 23
3 2 3 4 4 4 6 7 7 6 6 4 6 5 4 7 8 6 4 1 1 1 3 1 3 4 4 1 4 6 4 8 10 11 10 8 9 10 9 9 10 12 15 17 18 18 16 14 12 11 10 9 9 9 7 7 5 6 7 9 10 8 5 1 2 2 5 9 13 16 18 20 23 24 23 22 21 21 21 21 21 21 21 22 23 23
4 4 5 4 3 3 6 6 5 5 5 2 3 3 4 5 4 2 2 3 1 2 3 3 2 2 3 6 4 5 2 6 11 12 9 6 7 7 5 4 6 9 13 18 20 19 17 15 13 11 10 9 9 8 8 8 5 5 6 8 9 9 7 5 2 0 2 4 6 9 11 13 16 19 20 19 19 19 19 20 19 20 20 20 21 23
4 4 3 3 3 5 7 6 5 6 7 5 3 4 4 3 3 3 2 1 1 1 1 2 4 4 3 4 5 4 3 1 3 8 10 8 6 6 5 5 7 10 13 16 18 18 18 17 15 12 10 9 7 6 6 6 5 4 5 7 8 7 7 8 8 6 4 1 2 4 5 6 8 11 14 16 17 18 19 20 20 21 21 21 22 24
4 4 3 3 5 7 9 10 11 11 11 9 6 5 5 4 3 1 1 3 2 1 2 2 3 4 3 3 4 3 2 4 5 2 5 8 8 8 8 8 9 11 13 15 16 17 17 17 15 13 12 10 8 6 5 5 5 5 4 6 6 7 7 8 8 8 8 7 4 1 1 3 5 8 10 12 15 17 18 19 20 21 22 23 24 24
2 2 3 3 5 5 5 6 8 11 11 9 6 4 5 5 2 2 1 3 5 3 2 3 3 4 2 4 3 1 1 1 2 3 2 2 6 8 8 7 6 8 9 11 14 16 16 16 15 13 13 13 10 7 6 6 6 5 3 1 3 4 6 7 8 8 8 8 7 6 4 3 1 1 3 5 8 12 15 18 20 21 22 23 23 22
0 1 1 3 5 5 6 10 13 12 10 7 4 3 3 4 3 2 3 3 1 2 4 3 2 3 1 4 4 2 1 3 4 4 3 3 2 5 6 6 6 7 9 11 13 15 15 15 14 13 14 15 13 10 7 6 7 6 5 4 2 1 2 5 5 5 6 7 7 6 5 5 5 5 6 5 4 3 4 9 15 20 22 22 22 23
1 2 1 2 5 7 8 9 10 11 11 8 5 3 3 3 3 1 2 3 2 3 7 6 2 1 3 5 5 4 3 4 5 6 6 4 3 4 5 5 7 9 9 9 10 11 13 14 14 14 15 16 15 13 10 8 8 7 6 5 4 2 1 3 5 7 6 5 5 5 4 4 4 5 7 7 7 6 5 4 6 13 20 23 23 23
3 5 4 2 5 7 6 4 4 6 8 7 6 6 5 4 4 3 4 4 4 2 5 7 2 2 3 2 3 3 3 4 5 5 6 5 4 5 5 6 7 7 6 6 7 7 8 9 10 10 10 11 13 15 13 10 10 9 7 5 4 3 1 0 2 5 7 7 6 4 4 5 6 7 8 9 9 9 7 6 5 6 12 18 21 23
6 7 6 5 6 8 7 6 5 6 7 7 8 8 6 5 5 5 4 3 4 4 6 7 2 2 3 3 1 2 4 5 6 6 6 6 5 6 8 9 8 6 5 5 4 3 3 5 7 7 6 6 8 11 11 11 11 11 8 6 5 4 3 3 2 2 4 5 7 7 8 9 9 9 10 11 11 11 11 9 8 6 6 9 13 16
Wind_Direction
151 203 244 227 238 241 241 225 216 237 243 249 271 273 262 259 280 283 269 234 184 175 215 201 210 214 196 198 192 182 186 199 209 206 195 185 180 184 189 193 195 196 202 200 193 193 193 195 194 190 187 187 188 191 193 195 198 199 200 205 206 205 207 209 208 210 213 212 211 218 224 228 231 231 237 241 240 238 229 223 221 216 213 213 211 209
92 223 240 225 230 239 244 245 240 250 260 261 258 268 279 253 247 240 231 250 213 163 242 230 212 216 207 200 189 178 188 205 206 200 199 194 185 186 190 192 195 196 191 189 189 191 190 189 191 190 187 187 188 191 195 197 200 202 204 207 207 205 209 214 217 217 218 219 219 221 225 229 234 237 238 241 241 240 234 231 230 226 224 222 217 216
312 259 251 237 229 243 253 256 256 257 263 267 251 263 294 282 273 274 254 253 224 165 249 247 227 233 222 199 184 186 196 205 203 198 199 193 185 187 191 191 192 190 180 181 187 189 188 186 186 188 187 189 193 195 197 199 202 205 207 209 209 207 209 215 219 220 223 225 227 232 236 237 245 248 244 243 246 245 239 236 237 237 234 228 225 222
266 251 251 245 227 237 255 259 259 264 264 250 240 251 275 271 299 291 293 316 230 214 232 224 235 273 250 199 200 203 201 204 206 204 200 192 189 189 190 189 185 184 182 183 187 188 187 184 183 187 189 190 194 197 199 201 204 206 209 211 211 208 210 216 219 221 224 228 233 237 241 246 251 248 242 240 243 245 243 239 238 240 237 232 231 228
242 249 256 270 242 225 242 258 257 260 271 249 222 213 251 263 218 227 266 347 5 307 247 106 19 311 237 191 219 215 203 214 214 206 203 199 196 192 189 188 184 184 183 183 186 188 186 184 186 190 191 190 193 198 201 203 204 206 209 212 212 211 212 217 221 221 220 223 228 230 233 239 238 237 236 233 232 234 238 238 237 239 239 234 232 230
251 256 255 264 257 228 224 249 248 234 240 276 244 214 227 251 253 259 284 321 10 326 299 80 28 298 273 206 221 206 195 212 209 200 207 202 192 194 192 188 187 186 185 184 186 186 185 186 188 190 191 191 195 201 204 206 207 208 210 212 212 212 213 217 219 217 216 216 219 219 219 221 221 227 233 230 226 227 231 236 238 241 242 238 233 230
249 253 232 243 256 240 223 240 243 221 185 239 248 210 209 249 272 275 287 297 166 263 274 78 175 269 313 276 227 203 201 206 196 199 206 197 186 193 195 190 185 183 184 188 189 186 186 185 185 190 194 194 198 203 205 207 209 211 213 213 212 213 214 216 216 214 214 214 216 219 220 221 223 229 237 238 233 232 236 238 240 242 242 239 235 232
236 254 259 253 265 255 235 242 238 198 158 227 241 182 164 218 243 223 161 146 196 237 305 1 109 213 288 283 233 197 205 208 199 204 204 195 191 195 197 192 183 179 180 184 189 188 187 187 187 191 197 199 200 202 203 206 209 211 213 215 215 216 216 215 213 212 212 213 215 220 223 226 232 239 247 251 248 246 246 245 243 242 241 237 234 234
226 254 274 274 290 279 243 236 221 169 163 243 237 181 177 199 211 197 167 229 239 46 315 315 17 266 264 278 299 181 201 211 208 209 205 194 192 196 198 190 180 179 178 182 188 187 188 189 191 194 198 203 202 200 201 205 207 210 212 215 217 218 218 216 214 213 215 218 220 222 223 227 234 243 251 257 259 258 255 251 246 242 241 236 232 234
242 248 264 269 276 262 249 250 220 168 194 238 232 193 191 210 217 179 160 211 29 60 263 268 242 258 269 278 304 226 201 214 211 209 205 197 195 197 194 182 174 175 179 189 190 187 189 191 194 197 199 203 203 201 203 205 206 208 211 214 216 218 220 220 220 220 223 224 224 224 224 226 232 240 248 253 258 260 258 253 246 243 242 237 232 233
261 277 276 250 236 223 241 263 236 201 213 225 8 295 352 5 8 13 89 105 51 295 253 245 203 176 265 281 265 229 219 214 202 193 191 194 196 194 187 176 174 176 185 193 191 189 192 193 196 198 199 202 203 204 204 205 207 208 210 213 216 219 222 223 225 226 227 225 223 224 224 226 229 234 240 245 251 253 251 248 245 244 243 241 238 237
292 288 273 248 241 237 261 275 264 247 242 80 76 68 355 338 6 9 359 51 122 258 258 253 209 154 218 268 253 245 257 222 188 175 175 180 186 188 183 179 178 180 187 190 185 187 189 192 197 200 202 201 199 202 204 204 207 208 210 212 215 218 221 224 225 225 225 224 221 222 223 226 229 231 233 237 244 246 244 244 243 241 239 241 243 242
295 266 266 278 267 238 253 284 292 292 317 79 79 62 37 302 344 345 307 317 212 247 262 262 205 164 231 253 249 251 260 222 182 169 170 173 178 182 180 180 182 182 185 184 180 183 185 189 193 197 204 203 197 199 203 204 205 206 209 211 213 217 220 222 223 222 223 222 221 222 222 225 227 229 232 235 240 243 244 244 242 240 236 234 236 239
290 285 278 278 277 229 206 238 271 269 263 212 183 130 145 192 237 259 265 278 258 260 272 272 213 234 278 274 244 234 220 192 169 157 159 168 175 179 180 179 179 180 180 180 181 185 187 191 192 194 200 203 202 202 202 203 204 205 208 210 213 218 220 219 219 220 221 222 223 224 225 227 225 225 229 232 236 239 243 244 243 244 243 238 236 237
242 288 269 226 246 233 204 209 206 205 220 215 178 143 153 164 172 216 224 228 249 264 281 296 215 200 250 262 234 249 263 149 135 130 125 141 162 165 167 171 173 179 181 182 183 187 193 194 193 193 196 202 206 206 204 203 204 204 206 209 211 215 216 215 216 218 220 221 224 227 230 230 226 225 227 230 234 238 241 243 243 247 250 251 249 244
208 250 246 220 222 223 224 222 198 187 220 235 146 114 176 185 169 203 210 195 198 259 283 282 237 212 226 263 236 318 319 119 128 129 118 126 146 146 152 167 174 182 183 183 185 191 198 195 191 191 194 201 205 205 206 206 206 205 206 208 210 213 213 213 214 217 219 222 224 227 230 230 227 227 228 230 234 239 242 244 244 244 247 252 253 249
199 247 250 238 243 241 237 234 199 177 203 236 161 171 216 179 156 181 252 245 130 238 268 230 247 279 355 312 308 311 238 179 160 158 144 147 151 148 160 173 176 182 182 185 190 191 191 186 190 195 197 200 202 202 205 209 210 209 208 208 209 212 212 213 214 215 218 221 224 226 227 227 226 225 227 230 234 236 241 245 244 241 241 243 245 246
202 249 258 226 239 247 226 218 225 198 173 162 195 207 213 109 118 131 211 298 7 239 269 220 220 242 154 217 281 268 225 213 209 196 167 160 155 155 167 174 177 183 183 184 184 182 182 182 190 198 201 203 203 202 204 208 212 212 211 210 210 211 212 214 214 215 217 220 222 225 226 225 224 225 227 229 233 236 238 240 239 237 238 240 240 239
195 241 275 217 224 248 216 191 252 250 202 201 204 180 154 146 263 155 174 214 229 234 272 272 234 224 195 205 214 208 212 212 215 208 181 172 169 168 170 168 174 181 182 179 174 173 179 184 190 196 201 206 206 203 203 207 208 208 210 211 212 214 215 215 215 216 218 220 222 225 226 225 225 226 227 228 232 234 235 237 236 235 237 238 237 239
179 224 270 245 220 242 270 197 242 276 234 227 242 139 151 160 173 195 180 169 196 219 245 274 268 242 225 203 184 193 204 199 194 195 190 182 177 180 177 163 164 173 178 175 172 175 179 182 190 194 197 203 205 202 201 204 205 205 208 210 212 215 215 215 216 217 219 220 221 223 224 225 227 228 229 229 230 231 233 235 234 234 235 231 229 237
285 233 253 286 264 241 256 222 201 193 197 219 245 249 236 161 158 205 207 145 156 187 196 223 252 260 250 198 179 192 202 196 186 182 188 190 188 190 180 162 161 166 173 173 171 175 178 181 187 191 195 200 201 197 198 202 204 205 206 208 210 214 214 214 215 217 220 221 220 221 223 225 229 230 231 230 231 231 233 234 232 233 233 226 223 229
349 239 228 277 290 244 247 242 202 184 179 182 204 214 203 196 155 172 252 266 151 171 182 186 230 261 259 202 183 192 195 196 190 182 185 195 200 198 178 167 167 165 170 173 173 174 174 177 182 185 190 193 192 192 196 201 204 205 207 210 212 214 215 217 217 217 220 222 222 222 224 226 228 230 230 229 231 232 233 234 232 232 233 230 222 215
315 206 268 261 250 250 265 279 277 229 201 184 196 206 200 199 167 166 220 257 244 214 177 152 234 264 260 224 191 178 177 187 190 181 184 197 202 197 180 173 167 166 173 173 170 172 171 177 180 180 184 188 189 192 196 201 206 209 212 213 216 219 222 223 224 221 219 221 223 224 224 223 224 225 226 227 230 232 234 236 235 234 234 234 226 212
320 7 340 299 285 301 311 310 311 302 260 207 215 200 190 206 199 188 193 184 204 221 170 165 252 267 274 266 212 175 166 173 184 182 183 195 200 189 176 171 168 171 175 170 170 172 174 178 178 176 181 186 189 193 197 202 207 211 215 216 218 224 228 230 228 224 221 223 224 222 220 219 218 219 222 225 227 230 233 234 235 236 238 238 234 223
305 316 310 322 319 322 328 317 313 317 311 273 264 231 207 211 210 214 198 174 219 209 165 178 236 251 266 311 23 200 162 163 180 186 184 185 185 183 177 169 170 173 170 172 176 175 175 176 174 175 182 187 192 196 198 202 206 210 214 217 220 225 229 230 230 226 224 224 222 218 215 214 214 216 218 222 224 226 227 227 229 233 243 253 249 235
245 249 247 260 267 264 269 250 252 290 296 298 312 314 299 245 226 227 190 175 243 225 164 174 209 260 286 57 108 221 210 186 192 183 178 183 173 172 175 169 168 169 172 178 178 173 176 179 179 182 186 190 195 196 198 202 207 211 215 218 221 225 227 228 230 228 226 224 220 216 214 212 214 216 217 219 220 221 223 227 230 230 234 247 255 253
186 175 240 220 226 238 243 235 235 272 289 289 297 306 313 314 314 303 189 185 201 199 208 215 182 231 302 337 90 266 252 226 218 172 158 180 172 169 170 169 171 172 174 179 176 175 179 182 183 184 189 194 197 198 199 202 206 210 215 220 222 225 228 230 229 228 227 225 222 219 218 218 219 220 220 219 219 221 223 228 232 230 227 230 235 244
27 328 318 340 302 284 280 276 268 263 268 274 281 286 286 293 337 8 268 240 183 188 241 242 161 146 272 289 338 340 324 292 271 217 175 171 170 169 165 165 175 173 166 165 164 166 167 164 164 169 185 199 205 207 207 206 209 211 213 220 223 225 228 230 229 227 227 226 225 225 225 226 225 224 224 223 223 225 227 229 232 229 226 228 227 227
350 269 351 13 326 305 309 308 299 276 260 267 272 271 269 271 272 264 258 251 214 220 233 218 176 171 221 242 329 9 1 358 342 315 228 176 162 159 157 161 165 152 136 137 139 142 139 133 132 131 147 186 205 212 212 211 214 215 217 221 224 225 227 228 226 225 225 224 226 229 230 229 228 228 228 227 227 230 231 233 234 230 226 228 230 227
75 269 344 350 318 305 315 319 314 301 279 272 270 267 264 259 251 251 250 218 213 236 235 214 212 209 209 193 156 146 73 41 31 12 354 339 171 162 156 151 146 135 130 133 133 131 131 129 131 126 110 114 169 199 206 210 213 217 222 226 228 229 229 227 226 225 224 224 227 229 229 228 228 229 228 228 230 233 235 236 235 233 231 229 229 230
80 300 320 336 316 303 309 320 317 316 307 290 281 274 270 264 253 254 253 213 209 238 234 219 233 246 239 171 139 138 74 46 39 24 9 351 333 295 139 131 133 135 130 129 130 130 131 130 126 124 121 113 116 138 169 195 209 215 223 229 233 236 234 229 227 227 226 227 228 227 225 225 226 228 228 228 231 234 237 237 235 234 236 233 231 232
109 257 286 9 303 290 303 351 334 331 328 302 283 272 269 268 260 252 243 207 214 221 202 212 229 237 241 190 93 82 68 62 46 28 16 351 340 337 111 132 132 135 133 132 135 133 131 130 126 125 126 122 119 123 131 150 177 199 217 229 237 242 241 233 229 229 230 230 229 225 222 223 223 224 225 226 229 232 235 235 233 233 235 235 235 235
215 251 262 215 275 278 283 336 345 338 326 295 278 271 264 256 254 259 256 241 235 207 176 212 225 198 190 182 78 55 73 77 66 54 31 343 336 329 253 153 139 139 141 138 137 135 132 131 131 128 118 105 100 106 118 136 156 172 189 209 228 241 243 237 232 231 232 232 228 222 220 220 219 220 222 224 226 228 230 229 229 229 233 236 238 237
267 274 266 248 261 275 282 308 339 302 277 268 282 294 270 244 236 243 247 239 229 210 207 235 227 185 179 176 173 182 152 119 136 162 127 70 358 330 308 199 147 145 144 141 139 138 139 138 133 128 120 109 96 84 76 92 156 173 182 190 211 238 243 239 233 230 232 232 226 221 219 217 216 217 220 223 224 224 223 224 225 227 231 235 236 234
266 263 258 242 209 275 297 318 295 268 255 261 297 314 294 272 248 236 240 238 222 209 227 246 240 206 191 188 184 185 176 156 166 222 207 125 129 135 115 317 292 153 143 147 146 145 147 144 142 141 134 124 111 95 83 68 42 1 304 276 273 275 266 251 238 231 230 230 226 220 217 216 215 217 220 222 223 221 220 221 223 224 226 229 231 232
241 251 257 240 206 272 297 272 255 277 302 293 289 291 294 295 281 252 246 246 230 208 214 233 237 218 198 200 189 172 171 165 161 184 189 159 145 150 156 179 217 210 184 174 162 157 155 149 148 150 144 128 111 96 83 68 45 10 341 330 317 298 285 269 250 236 231 230 227 222 219 217 217 218 221 223 222 220 219 220 220 221 224 227 229 231
217 223 229 233 218 232 265 261 265 303 299 281 270 261 245 246 260 270 268 255 234 209 205 220 229 215 196 197 183 160 154 152 159 193 195 171 155 161 173 177 182 192 197 191 178 165 156 151 149 146 137 125 110 94 82 63 33 7 345 332 321 301 282 269 255 242 234 231 229 226 222 221 220 221 221 221 220 220 221 220 220 221 223 225 227 228
208 207 197 208 218 207 244 267 274 272 270 265 251 232 220 205 197 260 282 267 236 203 208 219 227 220 200 184 172 156 146 157 190 210 203 179 161 160 170 175 172 177 181 172 167 164 158 153 146 137 132 119 101 85 75 58 30 12 359 344 325 292 270 264 258 248 238 234 233 229 226 224 223 221 219 218 221 225 226 223 220 220 223 225 227 229
217 211 189 198 232 222 219 248 257 251 261 265 246 223 234 211 137 108 282 269 242 199 212 221 228 222 198 179 170 157 158 193 215 215 198 182 166 158 162 164 158 162 166 160 158 159 155 145 131 127 125 110 94 87 77 53 26 15 10 360 341 294 265 261 261 253 244 239 236 231 228 226 224 221 219 220 227 231 229 222 218 221 225 227 228 230
232 226 184 200 233 237 231 240 250 251 258 254 229 214 243 179 117 118 252 260 249 238 231 223 227 217 193 184 178 173 187 207 213 206 187 172 165 163 163 157 153 157 161 160 161 159 147 132 119 109 101 92 90 93 83 57 24 16 16 13 1 330 292 277 272 262 250 242 236 232 228 225 223 223 225 229 234 233 226 220 220 221 224 227 228 229
240 222 193 209 229 235 237 244 251 255 256 246 218 210 251 33 105 180 228 237 257 314 323 291 253 238 204 188 183 189 206 214 189 176 174 164 162 169 167 160 158 158 157 157 159 157 144 131 119 105 93 92 102 101 88 71 34 14 16 20 15 360 345 329 304 273 252 242 236 233 230 225 224 225 229 233 235 231 223 218 219 220 223 226 226 224
253 233 218 217 231 235 234 244 253 257 257 243 214 194 206 247 249 238 234 234 119 255 320 35 36 344 250 207 206 208 202 168 142 163 171 168 165 165 166 162 158 157 156 153 154 153 145 133 124 113 97 95 110 111 103 95 57 16 18 27 21 7 353 333 323 278 242 237 236 235 231 227 226 228 231 232 232 228 221 217 218 221 226 230 230 228
187 220 253 219 216 240 242 241 245 258 272 231 178 166 189 220 234 230 209 201 67 297 284 290 85 58 42 15 270 259 190 140 145 157 164 165 155 152 161 163 157 157 154 149 151 155 147 132 122 112 100 102 113 114 115 113 75 26 34 45 34 24 28 7 281 239 213 220 226 228 228 226 225 224 224 222 217 212 209 210 214 221 228 231 232 232
178 203 261 244 204 234 241 236 237 269 300 285 175 184 225 242 278 306 204 182 92 24 331 335 4 24 64 70 25 327 306 147 151 151 150 150 134 123 125 136 144 153 153 150 153 154 144 133 128 122 116 117 117 112 112 109 83 35 34 47 41 32 39 53 65 152 209 216 217 216 218 220 219 216 212 205 199 195 195 198 204 213 220 225 227 229
185 183 249 265 240 233 238 248 269 292 302 288 237 234 253 268 325 344 352 48 68 55 4 354 346 343 8 64 59 25 351 322 165 150 143 141 137 132 141 165 172 167 160 154 153 151 147 146 143 138 136 137 133 127 122 112 96 66 30 33 45 49 51 62 72 75 74 101 226 225 226 229 224 217 212 207 205 202 199 197 200 205 210 215 218 222
218 196 191 229 265 259 248 245 251 261 270 267 247 234 244 246 227 213 336 338 304 302 22 6 324 333 2 47 59 48 16 343 332 347 128 142 157 161 160 170 172 159 152 153 157 157 155 154 153 152 153 153 146 137 137 138 129 110 62 35 46 62 68 73 74 68 67 71 74 89 235 251 250 243 238 231 224 219 213 209 209 209 210 212 215 220
251 197 188 231 277 276 268 274 271 266 268 273 278 275 271 272 257 152 182 280 270 277 7 21 315 303 8 78 77 10 309 18 359 330 319 178 165 153 143 141 135 123 127 148 163 164 158 157 163 168 168 166 162 151 145 152 156 152 144 50 36 52 59 63 65 64 63 63 64 66 69 66 42 302 274 259 245 236 229 224 221 219 216 215 216 220
199 65 176 243 256 252 270 298 303 294 285 279 276 280 285 290 317 79 135 169 202 325 342 352 281 264 105 99 110 142 189 190 175 174 227 255 194 135 126 130 127 115 117 139 159 166 166 170 179 182 180 179 177 170 163 166 170 174 188 207 222 281 351 6 20 33 41 46 51 56 59 62 58 46 37 31 13 321 262 242 236 232 231 230 228 227
236 303 286 250 267 269 269 284 296 296 291 285 266 247 251 270 285 289 206 192 124 17 329 313 283 199 134 153 172 154 149 204 207 172 174 205 190 139 126 124 127 124 121 133 152 164 171 180 190 195 195 193 189 184 185 191 187 177 178 190 195 194 276 324 326 327 334 353 25 54 62 48 22 5 0 359 358 359 2 338 273 249 245 244 240 237
212 247 241 246 277 275 266 273 302 300 293 292 281 261 242 236 243 245 248 230 152 139 280 280 275 75 83 150 189 161 155 209 223 187 182 202 189 151 134 121 119 115 106 115 130 140 151 163 175 185 191 194 194 196 205 213 204 187 179 180 184 185 178 196 321 321 318 322 331 350 2 357 353 349 347 346 343 341 349 357 342 294 264 254 249 247
219 234 225 223 247 256 254 257 274 284 284 286 286 275 254 233 233 232 236 224 144 161 243 262 241 97 51 18 5 151 170 201 207 188 190 207 197 158 139 128 121 113 100 104 114 115 128 145 156 167 174 185 196 202 212 223 214 199 192 194 201 221 241 237 247 292 314 315 314 317 323 328 333 336 340 343 342 340 341 342 337 327 300 273 262 260
Height
781 792 797 795 792 788 786 786 786 784 784 787 787 785 784 783 780 772 766 759 755 766 770 767 769 768 770 772 771 772 774 776 777 777 779 780 782 783 782 783 782 782 781 780 782 783 784 787 789 792 794 796 798 800 800 800 801 802 804 806 807 809 811 813 814 815 817 818 819 819 820 820 821 821 821 822 822 823 823 823 823 824 824 824 824 825
783 797 796 787 784 781 779 780 780 782 782 784 785 783 780 780 779 770 764 757 755 765 767 762 766 767 767 769 768 771 774 773 772 775 776 775 778 780 779 780 780 779 779 780 783 783 784 787 789 791 792 794 796 797 799 799 799 801 802 804 806 808 810 811 813 815 816 817 817 818 818 819 820 820 820 820 821 822 822 823 823 823 824 824 824 825
795 797 787 779 779 778 778 777 778 781 782 783 782 781 779 775 774 768 761 757 757 764 766 762 766 766 764 766 767 767 766 766 766 767 769 770 774 777 778 778 778 779 780 780 782 782 783 785 787 789 790 792 793 795 797 798 799 800 801 802 804 807 809 810 812 813 814 815 816 816 818 819 820 819 819 820 820 821 821 822 823 823 823 823 824 825
802 790 774 772 776 779 780 777 777 781 782 783 780 779 779 774 777 775 764 759 759 762 764 763 765 765 764 767 766 762 761 762 763 762 764 766 768 771 772 772 774 776 778 779 780 780 782 784 786 787 788 790 791 793 795 797 798 798 799 800 802 805 807 809 811 812 813 814 815 816 817 818 819 819 819 819 819 819 820 820 821 821 822 822 823 824
794 777 767 772 775 778 781 778 778 783 784 780 775 775 775 771 775 775 767 762 761 762 760 762 771 768 765 771 767 761 763 764 762 763 765 765 765 766 768 769 771 771 773 776 777 778 780 782 783 785 787 788 789 791 792 794 795 796 797 799 801 803 805 807 809 811 812 813 814 815 816 817 817 817 817 817 817 817 818 818 818 819 820 821 822 823
784 769 766 773 773 774 780 779 776 779 783 779 771 767 766 766 768 768 767 769 775 776 762 764 785 780 764 769 768 761 764 764 762 764 764 764 765 767 768 768 769 769 770 772 773 775 777 779 781 784 786 787 788 789 790 791 793 795 796 798 800 802 803 805 807 809 811 812 813 814 814 815 815 815 814 814 815 815 816 816 817 818 819 820 821 822
773 763 764 770 770 772 776 776 770 770 779 780 767 759 760 764 767 768 769 774 785 785 768 764 785 787 769 762 761 760 762 761 761 762 761 762 765 765 765 765 766 768 770 771 771 772 774 777 780 782 783 785 785 787 789 791 793 794 796 797 799 800 802 803 805 807 809 810 811 812 812 812 813 812 812 813 814 814 815 816 816 817 817 818 820 820
765 763 765 766 767 771 774 773 763 760 773 775 759 754 760 763 766 767 767 772 776 775 770 764 773 786 778 760 755 758 760 760 761 762 760 759 762 762 761 761 762 765 767 769 771 772 773 775 777 779 780 781 782 785 788 790 791 793 795 796 798 799 800 801 802 804 805 807 808 809 810 810 811 810 811 812 813 814 814 815 815 815 816 817 818 819
762 765 765 764 768 770 768 763 754 754 765 763 750 753 759 759 762 762 763 768 770 774 780 770 767 786 784 759 753 759 762 763 761 759 758 757 757 757 757 758 760 762 764 766 768 769 770 772 773 775 776 778 780 783 786 787 789 791 793 795 797 798 799 799 800 801 802 803 804 806 807 808 809 809 810 811 812 813 813 813 814 814 814 815 816 817
762 761 759 762 767 766 759 753 748 753 758 751 747 753 756 758 760 761 765 767 770 781 787 774 768 785 786 761 753 760 762 761 756 752 754 753 753 753 754 758 760 762 764 764 764 766 767 768 770 772 774 776 779 782 784 786 788 790 791 793 795 796 797 798 799 799 800 801 801 803 804 805 807 807 809 810 811 812 812 811 812 812 813 813 814 815
760 754 753 757 759 756 751 748 747 748 749 746 750 756 759 763 762 762 767 768 778 791 784 769 766 780 787 766 751 754 753 748 747 748 752 752 752 753 754 757 758 761 763 762 763 765 766 767 768 771 773 775 778 780 782 784 786 787 789 791 792 794 795 796 796 797 797 798 799 800 801 802 804 805 806 807 808 809 809 809 810 811 811 812 813 814
762 759 756 751 748 748 749 750 746 743 745 749 756 761 767 773 771 772 776 776 792 798 776 763 765 776 787 768 746 746 742 739 740 741 745 748 750 752 752 754 756 757 759 760 762 764 766 768 769 771 773 774 777 778 780 782 783 785 787 788 789 790 791 792 793 794 795 796 796 797 798 799 801 802 803 804 805 806 806 807 807 809 810 811 812 813
765 760 756 750 744 744 752 756 753 747 747 753 760 768 780 791 791 793 794 791 798 793 770 764 770 777 778 759 742 741 736 735 735 732 736 741 744 748 749 751 752 754 756 758 760 763 765 766 767 769 770 771 774 775 776 779 781 783 784 785 786 786 787 789 790 792 793 794 795 795 796 796 798 799 800 801 802 803 804 805 805 806 808 810 811 812
774 763 754 754 749 741 747 759 763 758 753 756 762 770 783 797 807 809 805 802 801 787 767 764 773 777 770 752 741 738 733 733 733 731 733 735 737 742 743 746 749 751 754 756 758 760 761 762 763 765 766 768 770 772 774 776 778 780 781 782 783 784 786 787 789 791 792 793 793 794 794 795 796 797 798 799 800 801 802 803 804 805 806 809 810 811
784 778 757 753 751 741 742 748 753 753 752 753 752 760 773 783 795 803 800 799 796 784 773 770 774 776 767 751 741 738 736 734 732 732 734 735 736 739 742 746 749 751 753 754 756 757 757 757 759 761 764 766 767 769 772 774 775 777 778 779 781 782 784 786 788 789 790 791 792 793 794 794 795 796 796 797 798 798 800 801 803 804 805 807 807 808
782 778 751 742 741 738 741 739 736 746 755 751 746 757 768 766 770 782 786 783 783 786 782 774 768 763 756 747 739 740 741 736 734 732 733 736 738 740 744 747 748 750 751 753 755 755 755 756 758 760 762 764 765 767 769 771 772 774 775 777 778 780 782 783 785 787 787 789 790 791 792 793 794 795 796 797 797 797 798 800 802 803 804 804 804 805
776 770 744 738 739 734 737 735 731 742 752 751 752 758 756 748 752 769 781 777 779 792 789 775 768 759 756 754 745 744 746 740 738 735 733 736 737 739 743 745 746 749 750 752 753 754 755 756 758 759 760 762 763 765 766 767 769 770 772 775 776 778 779 780 781 783 784 786 787 787 789 790 792 793 794 795 796 797 797 799 800 802 801 800 801 803
761 763 744 739 743 731 726 730 729 730 736 747 755 750 744 748 752 761 777 782 786 796 788 774 770 764 765 765 752 748 750 745 742 740 737 737 737 738 740 742 744 745 747 749 751 753 754 755 757 758 759 760 761 762 764 765 766 768 770 772 774 775 776 777 778 780 781 783 784 785 786 788 789 790 792 793 795 796 797 798 799 799 799 799 801 802
749 762 749 736 740 731 721 731 739 731 726 735 739 734 741 760 766 765 775 784 790 796 786 773 769 764 762 760 754 751 749 743 742 742 740 738 736 736 736 739 741 742 744 747 749 752 753 754 755 756 757 759 760 761 762 763 764 766 768 770 771 772 773 775 777 778 780 781 782 783 785 786 787 788 790 791 793 795 795 797 797 797 798 798 800 800
743 760 756 736 731 732 728 736 747 742 731 729 731 732 736 748 758 761 765 771 779 789 786 777 773 765 750 744 745 745 740 736 739 741 740 737 735 734 733 736 739 740 741 744 746 749 750 751 753 754 756 757 758 760 761 762 763 764 766 768 769 771 772 774 775 776 778 779 780 782 783 785 786 787 788 789 790 792 793 794 795 796 796 797 800 800
743 754 759 743 732 738 740 736 738 739 737 738 742 744 742 741 747 753 756 758 763 776 783 780 776 761 738 731 734 734 731 731 733 735 736 735 733 732 732 733 736 738 739 741 743 745 747 749 750 752 754 755 757 759 760 761 762 762 764 766 767 769 770 771 773 774 776 777 779 780 781 783 784 785 786 787 788 789 790 791 793 793 794 796 800 802
754 755 757 752 743 745 741 727 723 725 727 733 740 741 741 741 748 760 765 759 752 760 769 772 773 753 728 723 724 723 726 728 728 730 732 733 732 731 731 731 732 735 737 738 740 742 744 746 748 751 753 754 756 758 759 759 760 761 762 763 765 766 767 769 770 772 774 776 777 778 779 781 782 784 785 785 786 787 788 789 790 791 792 794 798 800
755 756 758 757 749 744 736 725 723 723 719 722 728 730 733 735 742 758 767 760 752 754 755 761 768 748 722 717 717 717 722 724 725 728 730 730 730 729 731 731 731 733 734 735 737 740 742 744 746 749 751 753 755 756 757 758 758 759 760 761 763 764 765 766 768 770 772 773 775 776 778 779 781 782 783 784 785 785 786 787 789 790 790 791 793 795
753 761 766 764 754 743 735 727 723 721 721 726 726 725 729 734 734 739 745 744 746 751 752 761 770 748 720 717 717 715 716 718 721 724 724 726 727 728 730 730 730 732 733 734 736 738 740 742 745 748 749 751 753 754 754 755 755 757 758 759 761 761 762 764 766 768 770 771 773 774 776 778 779 781 781 782 783 783 785 786 788 789 790 790 790 792
764 769 771 774 773 763 752 744 737 729 727 731 731 726 725 727 727 730 735 738 743 746 745 755 764 745 720 717 719 718 716 716 718 719 718 720 724 726 726 727 729 731 732 734 736 737 740 741 743 745 747 749 750 750 751 752 753 754 755 757 758 759 760 762 764 766 768 769 771 773 774 776 778 779 779 780 781 782 783 784 785 787 789 792 792 791
769 772 769 777 787 784 776 768 757 746 740 739 736 732 730 729 728 731 736 744 751 748 742 747 752 740 722 717 717 719 720 718 717 718 718 717 720 723 724 725 728 730 731 733 734 736 738 740 741 742 743 745 746 747 749 750 751 752 753 754 755 756 758 760 762 764 765 767 769 771 772 774 775 776 777 778 779 780 782 783 783 784 786 789 792 794
768 770 767 771 777 777 774 767 755 751 753 750 741 738 740 738 734 733 735 741 746 746 745 744 742 737 730 725 722 722 723 720 716 716 718 719 719 720 721 724 726 727 729 730 732 735 736 738 739 739 741 743 744 745 746 747 749 750 751 753 754 755 757 758 760 762 763 765 766 768 770 771 772 774 775 776 777 778 779 781 782 782 783 784 786 790
776 777 772 776 777 772 768 762 754 754 756 752 744 742 743 741 739 742 742 741 740 743 747 743 739 739 735 729 731 732 729 725 720 716 716 716 718 719 720 723 725 726 728 729 731 734 736 738 739 739 741 742 743 744 745 746 747 748 749 751 752 754 755 756 758 759 761 763 764 766 767 768 770 771 773 774 775 776 777 778 779 779 780 782 782 783
785 783 777 781 783 774 769 766 761 759 756 750 745 743 742 741 744 746 745 744 741 741 742 736 732 734 730 725 730 733 732 731 727 722 719 715 715 717 719 722 724 726 728 730 732 734 736 738 739 740 741 741 741 742 743 745 746 747 749 749 750 752 753 754 756 757 759 761 762 763 764 766 768 769 770 772 772 773 774 775 776 777 777 779 780 781
783 784 780 783 782 774 771 769 765 763 759 752 747 744 741 742 744 744 744 742 740 739 737 731 728 727 724 722 726 730 729 728 727 725 724 722 718 715 716 719 723 725 727 729 731 733 735 737 739 740 741 741 740 740 741 743 745 747 748 748 749 751 751 753 754 755 757 758 759 760 762 764 766 767 768 769 769 771 772 773 774 775 776 777 779 780
782 785 781 781 783 777 771 768 766 764 762 757 751 746 743 742 743 744 743 740 739 740 738 734 733 730 724 720 723 727 725 724 726 728 727 728 726 722 719 721 724 725 727 729 731 732 734 735 737 738 740 741 741 741 741 742 743 745 746 747 748 749 750 752 753 753 754 755 756 758 760 762 763 764 765 766 767 768 769 771 772 773 775 776 778 779
784 786 781 782 788 781 770 770 769 765 765 763 755 749 746 747 746 743 742 739 736 737 739 739 737 734 728 724 722 722 721 723 728 732 731 730 731 732 730 726 725 726 727 728 730 731 732 733 734 735 737 738 740 741 742 742 743 744 744 745 746 747 748 750 751 751 751 752 753 756 757 759 760 762 763 763 765 766 767 769 771 772 774 775 776 777
782 786 785 786 789 780 771 772 771 768 773 768 753 744 742 744 745 742 741 740 734 732 736 738 732 726 725 725 722 720 721 722 726 732 734 733 733 736 736 730 727 728 727 728 729 730 730 731 731 732 733 734 736 738 740 741 743 743 744 744 745 745 746 747 747 748 749 749 751 753 754 757 758 759 760 761 762 764 766 767 769 770 772 773 774 775
778 782 783 782 785 779 771 770 771 775 777 762 743 738 738 736 737 737 737 735 733 731 730 727 722 719 720 721 721 721 721 721 723 727 730 732 734 738 739 735 731 729 727 727 728 728 729 729 729 730 731 733 734 735 737 738 739 741 741 742 743 743 743 744 744 745 746 746 748 750 752 754 755 756 758 759 761 762 764 765 766 768 770 771 771 772
777 779 780 778 781 777 770 772 778 775 763 747 737 737 738 734 730 727 725 722 723 727 726 721 718 717 716 715 714 716 718 720 722 724 725 728 732 736 739 740 737 734 730 728 728 728 728 728 729 730 731 733 734 734 735 735 735 736 737 738 739 739 740 741 741 742 743 744 745 747 749 750 752 754 755 757 759 760 762 763 764 766 767 768 768 769
776 778 778 777 777 775 772 775 774 761 746 740 739 735 735 738 734 727 723 717 714 718 720 716 713 712 713 713 712 714 716 717 720 722 722 724 727 731 735 737 738 737 734 731 729 728 727 727 728 729 731 732 733 733 733 733 733 734 734 734 735 736 736 738 738 738 739 740 742 744 746 747 749 751 753 755 757 758 760 761 762 764 765 766 766 767
773 776 778 778 776 773 772 769 762 756 749 742 737 730 729 736 738 734 729 717 707 709 711 709 709 709 709 711 713 714 715 718 722 721 717 716 719 724 729 731 732 733 732 730 729 727 727 727 728 729 730 731 732 732 732 732 731 731 731 732 732 733 734 735 735 735 736 737 738 740 742 744 747 748 751 753 755 756 757 758 760 762 764 764 765 765
769 771 774 779 775 771 774 770 764 764 756 738 728 723 721 725 729 735 738 722 704 703 706 705 705 706 707 711 715 715 716 721 723 718 713 711 711 716 723 726 727 729 729 729 729 728 727 727 727 729 730 730 730 730 730 729 729 729 729 730 731 731 732 732 732 732 733 734 735 737 739 741 744 746 748 750 752 753 754 756 758 760 761 761 761 762
768 769 771 778 776 772 775 773 766 761 747 729 722 720 720 721 721 730 743 730 707 700 702 701 703 704 705 709 712 715 719 722 719 712 709 709 708 710 715 718 721 725 727 728 728 727 727 727 727 727 728 728 728 728 728 728 727 728 729 729 729 729 730 730 729 730 730 731 732 734 737 739 741 744 746 748 749 751 753 755 756 757 757 757 757 759
768 771 774 780 777 772 772 768 760 750 735 723 720 719 719 718 717 731 745 730 706 700 701 699 699 700 701 704 708 710 711 709 706 705 705 705 707 708 709 710 714 718 721 724 726 727 726 725 725 725 726 726 726 726 727 727 727 728 729 728 728 728 728 728 727 727 728 729 731 733 735 737 739 741 744 745 747 749 751 753 753 753 754 754 755 757
767 771 775 777 773 771 769 764 755 744 727 717 717 718 718 719 723 734 734 715 701 703 704 700 699 698 697 699 701 700 696 691 691 696 699 701 703 706 707 708 710 713 716 720 723 725 726 724 724 724 724 725 726 726 727 727 727 728 729 728 728 728 727 727 727 726 727 728 729 732 733 735 738 739 741 743 745 747 749 750 751 751 751 752 753 755
768 770 771 771 769 766 763 760 756 741 719 710 714 716 719 725 727 723 712 701 700 704 704 703 702 700 699 698 695 691 688 687 690 694 697 698 700 702 705 707 709 712 715 717 720 722 723 723 723 723 724 725 726 726 727 727 728 728 728 728 728 727 727 727 727 726 727 727 728 729 731 733 735 737 739 741 743 745 747 747 748 749 749 750 751 752
767 768 766 762 761 762 759 757 754 738 715 707 712 717 719 719 713 704 698 698 703 704 703 703 702 700 701 700 697 694 690 689 692 695 698 699 700 702 705 706 708 711 713 716 719 720 721 721 721 722 723 725 726 727 727 727 727 727 727 727 727 727 726 727 727 727 727 727 727 728 729 731 733 735 737 739 741 743 744 745 746 747 747 748 749 749
760 761 760 754 752 755 754 746 737 727 717 712 713 716 716 711 704 701 700 699 702 704 704 704 702 700 698 696 698 700 697 693 692 694 698 701 701 703 705 705 708 710 711 713 715 717 718 719 720 722 724 725 727 727 726 726 726 726 727 727 727 727 727 726 726 726 727 727 727 728 729 730 732 734 736 738 740 742 743 744 745 745 746 746 746 747
754 753 758 759 753 749 743 733 725 723 721 719 717 716 715 710 708 708 706 703 703 703 703 704 703 701 697 694 696 699 700 698 696 694 695 699 701 703 706 708 710 711 710 710 712 713 715 717 719 721 723 725 726 726 726 726 726 726 726 726 727 727 727 727 726 726 726 726 726 727 729 730 731 733 735 736 738 739 740 742 742 743 744 744 744 745
749 751 758 760 754 745 735 727 724 723 720 717 716 716 714 710 707 707 707 707 707 704 702 704 704 702 699 697 697 698 700 704 704 701 699 700 702 704 707 709 709 708 708 708 710 712 714 716 718 720 722 723 725 725 725 725 725 725 726 726 727 727 727 727 727 727 727 727 727 727 728 729 731 732 733 735 736 737 738 739 740 740 741 742 742 743
749 752 755 754 753 746 735 726 725 724 719 716 714 712 711 709 706 705 705 708 710 707 703 702 704 704 701 699 701 703 703 705 709 709 707 705 703 702 703 705 705 705 706 708 710 711 714 716 718 719 721 722 723 724 724 725 725 725 726 726 726 727 727 727 727 727 727 727 728 728 729 730 731 732 733 734 735 737 738 738 739 739 739 740 741 742
749 752 752 752 752 747 739 733 730 725 719 716 714 712 711 710 708 706 705 706 708 709 705 703 704 705 702 700 702 705 707 708 710 710 711 710 705 702 702 703 704 705 706 708 710 712 714 716 717 718 720 721 722 723 724 724 725 725 725 725 726 726 726 726 726 727 727 728 728 729 729 730 731 732 733 734 735 736 737 737 738 738 738 738 738 739
749 752 749 747 747 743 737 733 729 724 719 715 713 711 711 711 710 709 707 706 706 706 707 705 704 703 702 701 700 703 706 709 708 708 709 709 706 703 702 703 704 705 707 709 711 712 714 715 716 718 719 719 720 722 723 724 724 724 724 724 725 725 725 725 725 725 726 727 728 729 729 730 731 731 732 733 734 735 736 737 737 737 736 737 737 736
748 748 745 746 747 741 733 728 726 726 724 718 714 711 710 709 710 709 708 707 704 704 707 707 704 703 703 702 701 702 705 706 707 707 707 706 704 703 702 703 704 706 707 709 710 712 713 714 715 716 718 719 719 721 722 722 723 724 724 724 724 725 725 726 726 725 725 726 727 728 729 730 730 731 731 732 733 734 735 735 736 735 735 735 735 735
742 739 738 741 741 733 725 723 724 726 724 718 714 712 709 708 708 709 708 706 704 704 706 706 705 704 705 704 703 704 704 705 706 707 707 705 704 703 702 703 704 706 707 708 710 711 712 713 714 716 717 718 719 720 721 721 722 722 723 723 724 724 725 725 726 726 726 726 726 727 727 728 729 729 730 730 731 732 732 733 734 734 734 733 733 734